[[{"header":{"parameterUnit":"m.s-1","parameterCategory":1,"la1":30.2991,"la2":30.254,"lo1":-89.0895,"lo2":-89.0444,"dx":0.0017,"dy":0.0017,"nx":28,"ny":28,"refTime":"2022-11-30T15:00:00:Z","depth":0,"parameterNumber":2,"parameterNumberName":"U-component_of_WINDS"},"data":[0,0,0,0,0,0,0,0,0,0,0,0,0,0,0,0,0,0,0,0,0,0,0,0,0,0,0,0,0,0,0,0,0,0,0,0,0,0,0,0,0,0,0,0,0,0,0,0,0,0,0,0,0,0,0,0,0,0,-4.2239,-4.224,0,-4.2288,-4.2289,-4.2289,-4.2145,-4.214,-4.2136,-4.2131,-4.2185,-4.219,-4.2195,0,0,0,0,0,0,0,0,0,0,0,0,0,-4.2021,-4.2026,-4.2239,-4.224,-4.224,-4.2288,-4.2289,-4.2289,-4.2145,-4.214,-4.2135,-4.2129,-4.2183,-4.2189,-4.2196,0,0,0,0,0,0,0,0,0,0,0,0,0,-4.2098,-4.2028,-4.2239,-4.2174,-4.2169,-4.2288,-4.2289,-4.229,-4.2146,-4.214,-4.2133,-4.2127,-4.218,-4.2189,-4.2197,-4.2382,0,0,-4.2222,-4.2226,0,0,0,0,0,0,0,0,-4.2094,-4.2106,-4.2183,-4.2179,-4.2173,-4.2203,-4.2231,-4.2321,-4.2148,-4.2155,-4.2131,-4.2124,-4.2196,-4.2203,-4.2227,-4.2384,-4.2387,-4.2223,-4.2228,-4.2232,-4.2234,0,0,0,0,0,0,0,-4.2089,-4.2103,-4.2258,-4.2184,-4.2178,-4.2143,-4.2146,-4.2248,-4.2213,-4.2154,-4.2144,-4.2151,-4.2192,-4.2219,-4.2227,-4.2387,-4.2223,-4.223,-4.2235,-4.2239,-4.2697,-4.2704,0,0,0,0,0,0,-4.2091,-4.21,-4.2257,-4.226,-4.2116,-4.2152,-4.2156,-4.22,-4.2211,-4.2206,-4.2157,-4.2144,-4.2208,-4.2218,-4.2228,-4.2444,-4.2232,-4.2239,-4.2244,-4.269,-4.2698,-4.2706,0,0,0,0,0,0,-4.2087,-4.2107,-4.2255,-4.2177,-4.2193,-4.2163,-4.2214,-4.2205,-4.2231,-4.2213,-4.2206,-4.2191,-4.2203,-4.2217,-4.2344,-4.2444,-4.2243,-4.2251,-4.2681,-4.2692,-4.2702,-4.2878,0,0,0,0,0,0,-4.2082,-4.2106,-4.2176,-4.218,-4.2198,-4.237,-4.222,-4.2211,-4.2246,-4.223,-4.2243,-4.2239,-4.2199,-4.2332,-4.2352,-4.2452,-4.2257,-4.2672,-4.2686,-4.2699,-4.2863,-4.2894,-4.292,0,0,0,0,0,-4.2074,-4.2225,-4.2181,-4.22,-4.2285,-4.2376,-4.2387,-4.2337,-4.2255,-4.2325,-4.2312,-4.2239,-4.243,-4.2347,-4.2368,-4.2471,-4.2666,-4.2682,-4.2698,-4.2851,-4.2888,-4.2919,0,0,0,0,0,0,-4.2236,-4.2224,-4.2175,-4.2331,-4.2356,-4.2352,-4.2438,-4.2378,-4.2427,-4.241,-4.2347,-4.2351,-4.249,-4.2493,-4.2401,-4.265,-4.2534,-4.2555,-4.2643,-4.2678,-4.2705,-4.2701,-4.2264,0,0,0,0,0,-4.2289,-4.2364,-4.235,-4.2489,-4.2504,-4.247,-4.2508,-4.2467,-4.249,-4.25,-4.2497,-4.2523,-4.2588,-4.2633,-4.2693,-4.2863,-4.2863,-4.2945,-4.2973,-4.2996,-4.3015,-4.3103,-4.3139,-4.2759,-4.2759,-4.2759,0,0,-4.2401,-4.2404,-4.2455,-4.2522,-4.2536,-4.2614,-4.2479,-4.2569,-4.2627,-4.2514,-4.2633,-4.2632,-4.2657,-4.2806,-4.2872,-4.2813,-4.3119,-4.3016,-4.3035,-4.3041,-4.3123,-4.3159,-4.3191,-4.277,-4.2768,-4.2766,0,0,-4.2644,-4.2655,-4.277,-4.2787,-4.2809,-4.2785,-4.2813,-4.2818,-4.2813,-4.2931,-4.2848,-4.2916,-4.3031,-4.3051,-4.3076,-4.3326,-4.3259,-4.3347,-4.3494,-4.3581,-4.361,-4.3637,-4.3724,-4.3756,-4.3366,-4.3366,-4.3367,0,-4.278,-4.2895,-4.2838,-4.2933,-4.2964,-4.2864,-4.298,-4.2999,-4.3041,-4.3065,-4.2999,-4.3139,-4.3149,-4.33,-4.3361,-4.3385,-4.3414,-4.3345,-4.3611,-4.3636,-4.366,-4.3742,-4.3776,-4.3377,-4.3376,-4.3375,-4.3374,0,-4.306,-4.3142,-4.3232,-4.3273,-4.3315,-4.342,-4.3379,-4.3428,-4.3383,-4.3366,-4.3487,-4.3495,-4.3554,-4.3587,-4.3545,-4.3732,-4.3695,-4.3621,-4.3503,-4.3707,-4.3784,-4.3815,-4.3392,-4.3388,-4.3385,-4.3382,0,0,-4.3408,-4.3414,-4.3448,-4.3464,-4.3481,-4.3543,-4.3643,-4.3699,-4.3742,-4.3774,-4.3856,-4.3954,-4.3885,-4.3914,-4.3873,-4.395,-4.4145,-4.3866,-4.3865,-4.3916,-4.435,-4.4404,-4.4442,-4.4101,-4.4107,-4.4111,-4.4347,0,-4.3646,-4.3817,-4.3767,-4.3939,-4.4012,-4.3917,-4.4005,-4.4025,-4.4011,-4.4071,-4.4056,-4.4126,-4.4031,-4.4047,-4.4119,-4.4106,-4.4231,-4.4089,-4.4176,-4.418,-4.4172,-4.4482,-4.4541,-4.4763,-4.4377,-4.4382,-4.4385,0,-4.3947,-4.3988,-4.4167,-4.417,-4.4198,-4.4278,-4.4324,-4.4383,-4.4403,-4.4388,-4.4419,-4.4363,-4.4461,-4.4343,-4.4477,-4.4381,-4.4414,-4.4413,-4.442,-4.4426,-4.4294,-4.4495,-4.4832,-4.4865,-4.4432,-4.4428,-4.4425,0,-4.418,-4.4281,-4.44,-4.4417,-4.4424,-4.4482,-4.4487,-4.45,-4.4537,-4.4577,-4.46,-4.4652,-4.4681,-4.4722,-4.4681,-4.4599,-4.4821,-4.47,-4.481,-4.4812,-4.4861,-4.4858,-4.5207,-4.4885,-4.4884,-4.4884,-4.4883,0,-4.4451,-4.4563,-4.4504,-4.4578,-4.4701,-4.4643,-4.4766,-4.4761,-4.4774,-4.4844,-4.4766,-4.4834,-4.4776,-4.4839,-4.4808,-4.4922,-4.4936,-4.4926,-4.4916,-4.4932,-4.4934,-4.4952,-4.4935,-4.4893,-4.4891,-4.4889,-4.4887,0,-4.4732,-4.4697,-4.482,-4.4816,-4.4817,-4.4908,-4.4904,-4.4971,-4.4951,-4.5041,-4.5059,-4.5029,-4.5098,-4.5061,-4.5134,-4.5112,-4.526,-4.523,-4.5253,-4.5245,-4.5357,-4.5346,-4.5729,-4.5776,-4.5425,-4.5429,-4.5431,0,-4.4906,-4.499,-4.4994,-4.5035,-4.5045,-4.5112,-4.5148,-4.5094,-4.5135,-4.5163,-4.5227,-4.5289,-4.5336,-4.5452,-4.5436,-4.5491,-4.546,-4.5591,-4.5468,-4.5481,-4.546,-4.5455,-4.5462,-4.5615,-4.562,-4.5623,-4.5626,0,-4.5219,-4.5197,-4.5251,-4.5299,-4.5343,-4.5379,-4.5408,-4.5446,-4.5393,-4.5442,-4.5511,-4.5548,-4.562,-4.5683,-4.573,-4.5735,-4.5672,-4.5664,-4.5692,-4.5709,-4.5718,-4.5713,-4.5319,-4.5656,-4.5653,-4.565,-4.5649,-4.5648,-4.545,-4.5519,-4.5532,-4.5595,-4.561,-4.5639,-4.5701,-4.5689,-4.5745,-4.5799,-4.5764,-4.5845,-4.5862,-4.5917,-4.5931,-4.5994,-4.5942,-4.5983,-4.5993,-4.6004,-4.6018,-4.5709,-4.6003,-4.6002,-4.6001,-4.6,-4.5999,0,-4.5757,-4.576,-4.5818,-4.586,-4.5909,-4.5844,-4.5872,-4.5917,-4.599,-4.601,-4.6057,-4.6136,-4.6196,-4.6185,-4.6239,-4.6291,-4.6263,-4.6307,-4.6302,-4.6304,-4.6063,-4.6032,-4.6328,-4.6328,-4.6328,-4.6328,-4.6328,-4.6328,-4.5922,-4.6035,-4.6015,-4.6135,-4.6137,-4.6215,-4.6236,-4.6262,-4.6277,-4.6368,-4.6417,-4.6409,-4.6416,-4.647,-4.6522,-4.6517,-4.654,-4.6594,-4.6579,-4.6354,-4.6321,-4.629,-4.6261,-4.66,-4.6601,-4.6814,-4.6816,-4.6817]},{"header":{"parameterUnit":"m.s-1","parameterCategory":1,"la1":30.2991,"la2":30.254,"lo1":-89.0895,"lo2":-89.0444,"dx":0.0017,"dy":0.0017,"nx":28,"ny":28,"refTime":"2022-11-30T15:00:00:Z","depth":0,"parameterNumber":3,"parameterNumberName":"V-component_of_WINDS"},"data":[0,0,0,0,0,0,0,0,0,0,0,0,0,0,0,0,0,0,0,0,0,0,0,0,0,0,0,0,0,0,0,0,0,0,0,0,0,0,0,0,0,0,0,0,0,0,0,0,0,0,0,0,0,0,0,0,0,0,-0.9663,-0.9662,0,-0.9577,-0.9576,-0.9575,-0.9615,-0.9617,-0.962,-0.9622,-0.953,-0.9526,-0.9521,0,0,0,0,0,0,0,0,0,0,0,0,0,-0.9854,-0.9851,-0.9663,-0.9662,-0.9661,-0.9577,-0.9576,-0.9575,-0.9615,-0.9617,-0.962,-0.9623,-0.9532,-0.9526,-0.9521,0,0,0,0,0,0,0,0,0,0,0,0,0,-0.977,-0.9849,-0.9663,-0.9671,-0.967,-0.9577,-0.9576,-0.9574,-0.9614,-0.9618,-0.9621,-0.9624,-0.9533,-0.9527,-0.952,-0.9413,0,0,-0.95,-0.9497,0,0,0,0,0,0,0,0,-0.9775,-0.9763,-0.9671,-0.967,-0.967,-0.961,-0.961,-0.952,-0.9613,-0.9635,-0.9622,-0.9625,-0.9554,-0.9546,-0.9522,-0.9409,-0.9405,-0.9499,-0.9495,-0.9492,-0.949,0,0,0,0,0,0,0,-0.9781,-0.9767,-0.9629,-0.9669,-0.9668,-0.9676,-0.9668,-0.9593,-0.9577,-0.9634,-0.9637,-0.9626,-0.9554,-0.9529,-0.952,-0.9404,-0.9499,-0.9493,-0.9489,-0.9487,-0.9191,-0.9188,0,0,0,0,0,0,-0.9787,-0.9771,-0.9631,-0.9626,-0.9731,-0.967,-0.9661,-0.9626,-0.9578,-0.9574,-0.9623,-0.9628,-0.9538,-0.9528,-0.9517,-0.9383,-0.9492,-0.9486,-0.9482,-0.9195,-0.919,-0.9186,0,0,0,0,0,0,-0.9791,-0.9774,-0.9635,-0.9699,-0.9682,-0.9663,-0.9624,-0.9622,-0.9597,-0.957,-0.9567,-0.96,-0.9541,-0.9527,-0.9437,-0.9381,-0.9483,-0.9477,-0.9199,-0.9194,-0.9188,-0.9118,0,0,0,0,0,0,-0.9796,-0.9775,-0.9736,-0.9698,-0.9679,-0.9558,-0.9621,-0.9618,-0.9586,-0.9591,-0.9548,-0.9544,-0.9542,-0.9447,-0.9431,-0.9373,-0.9472,-0.9204,-0.9197,-0.919,-0.9125,-0.911,-0.9098,0,0,0,0,0,-0.9803,-0.9721,-0.9734,-0.9717,-0.963,-0.9555,-0.9544,-0.9544,-0.9581,-0.954,-0.9522,-0.9545,-0.9391,-0.9438,-0.942,-0.9359,-0.9208,-0.9199,-0.9191,-0.9131,-0.9113,-0.9098,0,0,0,0,0,0,-0.9752,-0.9716,-0.973,-0.9634,-0.9597,-0.9562,-0.951,-0.9526,-0.9478,-0.9485,-0.9487,-0.9476,-0.9382,-0.9363,-0.9416,-0.925,-0.9305,-0.9292,-0.9265,-0.9248,-0.9235,-0.9239,-0.9466,0,0,0,0,0,-0.973,-0.9674,-0.9645,-0.9562,-0.9543,-0.953,-0.9497,-0.9501,-0.9462,-0.9447,-0.9423,-0.9383,-0.9325,-0.9286,-0.9232,-0.9124,-0.9111,-0.9073,-0.906,-0.9049,-0.9036,-0.897,-0.8951,-0.9158,-0.9158,-0.9158,0,0,-0.9683,-0.9656,-0.9621,-0.9551,-0.9523,-0.9461,-0.9516,-0.9451,-0.9404,-0.9436,-0.9349,-0.933,-0.9285,-0.9184,-0.9139,-0.9165,-0.8976,-0.9038,-0.9029,-0.9022,-0.8959,-0.894,-0.8922,-0.9152,-0.9153,-0.9154,0,0,-0.9564,-0.9542,-0.9467,-0.9437,-0.9393,-0.9385,-0.9367,-0.9328,-0.9316,-0.9229,-0.925,-0.9194,-0.9096,-0.9061,-0.9031,-0.8895,-0.8912,-0.8878,-0.8805,-0.8741,-0.8724,-0.871,-0.8655,-0.8636,-0.8866,-0.8866,-0.8866,0,-0.9511,-0.9421,-0.9426,-0.9357,-0.9323,-0.935,-0.9271,-0.9242,-0.9183,-0.9157,-0.9189,-0.9062,-0.9035,-0.8922,-0.8889,-0.8866,-0.8841,-0.888,-0.8727,-0.8712,-0.8698,-0.8646,-0.8626,-0.8862,-0.8862,-0.8863,-0.8863,0,-0.9354,-0.9291,-0.9235,-0.9176,-0.9137,-0.9064,-0.9054,-0.9013,-0.902,-0.9006,-0.8914,-0.8882,-0.8818,-0.8793,-0.88,-0.868,-0.8697,-0.8728,-0.8781,-0.8674,-0.8624,-0.8605,-0.8855,-0.8857,-0.8858,-0.8859,0,0,-0.92,-0.9142,-0.9121,-0.9092,-0.9045,-0.8995,-0.8921,-0.8859,-0.8821,-0.8779,-0.8713,-0.8628,-0.8654,-0.8619,-0.8622,-0.8567,-0.8453,-0.8603,-0.8602,-0.8571,-0.8311,-0.8283,-0.826,-0.8466,-0.8462,-0.8459,-0.8312,0,-0.9073,-0.8944,-0.8944,-0.8824,-0.8762,-0.8785,-0.872,-0.8682,-0.8667,-0.8611,-0.8595,-0.8531,-0.8574,-0.8552,-0.8499,-0.8478,-0.8399,-0.849,-0.8399,-0.8396,-0.8404,-0.8236,-0.8208,-0.807,-0.8294,-0.829,-0.8288,0,-0.8908,-0.8858,-0.8731,-0.8687,-0.8661,-0.8603,-0.8543,-0.8491,-0.8446,-0.8439,-0.8398,-0.8408,-0.8329,-0.8388,-0.8276,-0.8337,-0.83,-0.8284,-0.8279,-0.8265,-0.8331,-0.8212,-0.8027,-0.8004,-0.8259,-0.8261,-0.8263,0,-0.8799,-0.8701,-0.8611,-0.8586,-0.8535,-0.8492,-0.8468,-0.8428,-0.8389,-0.8337,-0.831,-0.825,-0.8215,-0.8166,-0.8158,-0.8204,-0.8042,-0.8103,-0.8029,-0.8029,-0.799,-0.7991,-0.779,-0.7977,-0.7977,-0.7978,-0.7978,0,-0.8654,-0.8573,-0.8561,-0.8504,-0.8413,-0.8414,-0.8323,-0.8303,-0.8266,-0.8203,-0.8222,-0.8162,-0.8158,-0.8095,-0.8089,-0.7992,-0.7979,-0.7967,-0.7965,-0.7961,-0.7962,-0.7933,-0.794,-0.7972,-0.7973,-0.7975,-0.7975,0,-0.8516,-0.8505,-0.8406,-0.8365,-0.8353,-0.8287,-0.825,-0.8194,-0.8181,-0.8101,-0.8083,-0.8061,-0.7988,-0.7976,-0.7892,-0.7887,-0.7769,-0.778,-0.7783,-0.7782,-0.7706,-0.7711,-0.7475,-0.7441,-0.7656,-0.7654,-0.7652,0,-0.8421,-0.8359,-0.831,-0.8269,-0.8243,-0.8179,-0.8138,-0.8136,-0.8092,-0.8035,-0.7984,-0.7914,-0.7856,-0.7738,-0.7713,-0.7646,-0.7652,-0.7574,-0.7642,-0.7638,-0.7642,-0.7643,-0.7634,-0.7559,-0.7556,-0.7555,-0.7553,0,-0.825,-0.8247,-0.8189,-0.8126,-0.8077,-0.8028,-0.7982,-0.7947,-0.7939,-0.7888,-0.7814,-0.7769,-0.7681,-0.7608,-0.7541,-0.7514,-0.7529,-0.7533,-0.751,-0.7503,-0.7504,-0.7495,-0.774,-0.7537,-0.7538,-0.754,-0.754,-0.7541,-0.8126,-0.807,-0.8025,-0.7957,-0.7922,-0.7877,-0.7821,-0.78,-0.7738,-0.7665,-0.7669,-0.7585,-0.7537,-0.7449,-0.7418,-0.735,-0.7374,-0.7345,-0.7336,-0.7327,-0.7315,-0.752,-0.7339,-0.7339,-0.734,-0.734,-0.734,0,-0.7951,-0.7923,-0.7861,-0.7794,-0.774,-0.7762,-0.7711,-0.7662,-0.7589,-0.7544,-0.7486,-0.7397,-0.7326,-0.7295,-0.7223,-0.7175,-0.7179,-0.7155,-0.7155,-0.7147,-0.7301,-0.7324,-0.7152,-0.7152,-0.7152,-0.7152,-0.7152,-0.7152,-0.7853,-0.7756,-0.7747,-0.7631,-0.7604,-0.7522,-0.7489,-0.7446,-0.741,-0.731,-0.725,-0.7231,-0.7189,-0.7115,-0.7048,-0.7041,-0.701,-0.6981,-0.6976,-0.7119,-0.7138,-0.7156,-0.7177,-0.6977,-0.6976,-0.6827,-0.6826,-0.6825]}]]